| time (UTC) | temp F | wind direction | speed MPH | gust MPH | rain 1hr in | rain 24hr in | rain mn in | humidity % | barometer mb |
| 20260507213053 | 63 | 294 | 5.0 | 8.0 | 0.00 | 0.01 | 0.01 | 33 | 1002.4 |
| 20260507212548 | 63 | 262 | 3.0 | 6.0 | 0.00 | 0.01 | 0.01 | 32 | 1002.4 |
| 20260507212046 | 63 | 258 | 3.0 | 4.0 | 0.00 | 0.01 | 0.01 | 31 | 1002.1 |
| 20260507211542 | 62 | 242 | 1.0 | 2.0 | 0.00 | 0.01 | 0.01 | 32 | 1002.3 |
| 20260507211038 | 62 | 326 | 11.0 | 17.0 | 0.00 | 0.01 | 0.01 | 31 | 1002.6 |
| 20260507210536 | 63 | 327 | 4.0 | 6.0 | 0.00 | 0.01 | 0.01 | 31 | 1002.4 |
| 20260507210032 | 63 | 248 | 4.0 | 4.0 | 0.00 | 0.01 | 0.01 | 31 | 1002.4 |
| 20260507205529 | 63 | 205 | 1.0 | 2.0 | 0.00 | 0.01 | 0.01 | 31 | 1002.2 |
| 20260507205025 | 63 | 247 | 5.0 | 7.0 | 0.00 | 0.01 | 0.01 | 31 | 1002.4 |
| 20260507204522 | 63 | 335 | 4.0 | 7.0 | 0.00 | 0.01 | 0.01 | 31 | 1002.5 |
| 20260507204020 | 63 | 234 | 0.0 | 1.0 | 0.00 | 0.01 | 0.01 | 31 | 1002.4 |
| 20260507203517 | 63 | 237 | 0.0 | 1.0 | 0.00 | 0.01 | 0.01 | 31 | 1002.8 |
| 20260507203015 | 64 | 223 | 4.0 | 6.0 | 0.00 | 0.01 | 0.01 | 31 | 1002.4 |
| 20260507202510 | 63 | 299 | 3.0 | 4.0 | 0.00 | 0.01 | 0.01 | 32 | 1002.3 |
| 20260507202006 | 63 | 209 | 7.0 | 14.0 | 0.00 | 0.01 | 0.01 | 31 | 1002.4 |
| 20260507201502 | 63 | 290 | 4.0 | 6.0 | 0.00 | 0.01 | 0.01 | 32 | 1002.3 |
| 20260507200958 | 62 | 245 | 2.0 | 2.0 | 0.00 | 0.01 | 0.01 | 32 | 1002.2 |
| 20260507200454 | 62 | 242 | 2.0 | 4.0 | 0.00 | 0.01 | 0.01 | 33 | 1002.6 |
| 20260507195949 | 62 | 329 | 3.0 | 7.0 | 0.00 | 0.01 | 0.01 | 33 | 1002.6 |
| 20260507195448 | 63 | 267 | 8.0 | 11.0 | 0.00 | 0.01 | 0.01 | 33 | 1002.5 |
| 20260507194945 | 62 | 293 | 3.0 | 4.0 | 0.00 | 0.01 | 0.01 | 34 | 1002.4 |
| 20260507194441 | 63 | 234 | 4.0 | 4.0 | 0.00 | 0.01 | 0.01 | 33 | 1002.4 |
| 20260507193937 | 63 | 221 | 3.0 | 4.0 | 0.00 | 0.01 | 0.01 | 33 | 1002.4 |
| 20260507193435 | 63 | 278 | 4.0 | 4.0 | 0.00 | 0.01 | 0.01 | 33 | 1002.4 |
| 20260507192931 | 63 | 230 | 3.0 | 3.0 | 0.00 | 0.01 | 0.01 | 34 | 1002.4 |
| 20260507192427 | 62 | 314 | 3.0 | 3.0 | 0.00 | 0.01 | 0.01 | 35 | 1002.9 |
| 20260507191925 | 62 | 245 | 2.0 | 3.0 | 0.00 | 0.01 | 0.01 | 35 | 1002.7 |
| 20260507191420 | 62 | 299 | 3.0 | 4.0 | 0.00 | 0.01 | 0.01 | 35 | 1002.7 |
| 20260507190917 | 63 | 326 | 6.0 | 9.0 | 0.00 | 0.01 | 0.01 | 34 | 1002.7 |
| 20260507190415 | 62 | 293 | 2.0 | 4.0 | 0.00 | 0.01 | 0.01 | 35 | 1003.0 |
| 20260507185914 | 62 | 5 | 9.0 | 10.0 | 0.00 | 0.01 | 0.01 | 34 | 1002.8 |
| 20260507185411 | 62 | 279 | 6.0 | 9.0 | 0.00 | 0.01 | 0.01 | 34 | 1002.9 |
| 20260507184907 | 62 | 329 | 9.0 | 11.0 | 0.00 | 0.01 | 0.01 | 34 | 1002.7 |
| 20260507184405 | 63 | 340 | 6.0 | 8.0 | 0.00 | 0.01 | 0.01 | 35 | 1003.0 |
| 20260507183902 | 63 | 326 | 3.0 | 4.0 | 0.00 | 0.01 | 0.01 | 35 | 1003.1 |
| 20260507183359 | 63 | 277 | 7.0 | 9.0 | 0.00 | 0.01 | 0.01 | 35 | 1003.1 |
| 20260507182857 | 64 | 242 | 5.0 | 8.0 | 0.00 | 0.01 | 0.01 | 33 | 1003.2 |
| 20260507182352 | 64 | 240 | 2.0 | 3.0 | 0.00 | 0.01 | 0.01 | 34 | 1002.9 |
| 20260507181849 | 63 | 290 | 4.0 | 6.0 | 0.00 | 0.01 | 0.01 | 34 | 1002.8 |
| 20260507181344 | 64 | 238 | 3.0 | 4.0 | 0.00 | 0.01 | 0.01 | 35 | 1002.8 |
| 20260507180842 | 64 | 239 | 2.0 | 3.0 | 0.00 | 0.01 | 0.01 | 34 | 1003.2 |
| 20260507180338 | 62 | 252 | 2.0 | 3.0 | 0.00 | 0.01 | 0.01 | 35 | 1003.4 |
| 20260507175834 | 63 | 247 | 4.0 | 6.0 | 0.00 | 0.01 | 0.01 | 35 | 1003.1 |
| 20260507175331 | 62 | 243 | 5.0 | 8.0 | 0.00 | 0.01 | 0.01 | 35 | 1003.0 |
| 20260507174829 | 63 | 247 | 4.0 | 6.0 | 0.00 | 0.01 | 0.01 | 34 | 1003.1 |
| 20260507174326 | 62 | 180 | 5.0 | 7.0 | 0.00 | 0.01 | 0.01 | 36 | 1003.1 |
| 20260507173823 | 63 | 228 | 2.0 | 2.0 | 0.00 | 0.01 | 0.01 | 37 | 1003.1 |
| 20260507173320 | 62 | 235 | 2.0 | 3.0 | 0.00 | 0.01 | 0.01 | 37 | 1003.1 |
| 20260507172817 | 62 | 239 | 2.0 | 3.0 | 0.00 | 0.01 | 0.01 | 37 | 1003.2 |
| 20260507172314 | 62 | 232 | 2.0 | 3.0 | 0.00 | 0.01 | 0.01 | 38 | 1003.1 |
| 20260507171809 | 62 | 274 | 7.0 | 10.0 | 0.00 | 0.01 | 0.01 | 39 | 1003.1 |
| 20260507171307 | 63 | 229 | 4.0 | 6.0 | 0.00 | 0.01 | 0.01 | 40 | 1003.2 |
| 20260507170803 | 62 | 271 | 4.0 | 4.0 | 0.00 | 0.01 | 0.01 | 42 | 1003.5 |
| 20260507170300 | 62 | 230 | 4.0 | 6.0 | 0.00 | 0.01 | 0.01 | 45 | 1003.5 |
| 20260507165756 | 62 | 245 | 3.0 | 4.0 | 0.00 | 0.01 | 0.01 | 47 | 1003.5 |
| 20260507165252 | 60 | 337 | 3.0 | 4.0 | 0.00 | 0.01 | 0.01 | 50 | 1003.6 |
| 20260507164748 | 61 | 210 | 3.0 | 4.0 | 0.00 | 0.01 | 0.01 | 50 | 1003.5 |
| 20260507164245 | 62 | 238 | 0.0 | 1.0 | 0.00 | 0.01 | 0.01 | 50 | 1003.5 |
| 20260507163742 | 61 | 226 | 3.0 | 3.0 | 0.00 | 0.01 | 0.01 | 51 | 1003.8 |
| 20260507163240 | 60 | 329 | 2.0 | 4.0 | 0.00 | 0.01 | 0.01 | 53 | 1003.9 |
| 20260507162736 | 61 | 242 | 2.0 | 4.0 | 0.00 | 0.01 | 0.01 | 53 | 1003.8 |
| 20260507162232 | 61 | 259 | 1.0 | 1.0 | 0.00 | 0.01 | 0.01 | 52 | 1003.7 |
| 20260507161729 | 61 | 221 | 1.0 | 1.0 | 0.00 | 0.01 | 0.01 | 51 | 1004.0 |
| 20260507161225 | 60 | 244 | 4.0 | 4.0 | 0.00 | 0.01 | 0.01 | 51 | 1004.1 |
| 20260507160721 | 60 | 226 | 4.0 | 6.0 | 0.00 | 0.01 | 0.01 | 52 | 1004.1 |
| 20260507160218 | 61 | 233 | 4.0 | 4.0 | 0.00 | 0.01 | 0.01 | 51 | 1004.2 |
| 20260507155714 | 60 | 349 | 5.0 | 7.0 | 0.00 | 0.01 | 0.01 | 50 | 1004.2 |
| 20260507155210 | 60 | 322 | 4.0 | 6.0 | 0.00 | 0.01 | 0.01 | 51 | 1004.1 |
| 20260507154707 | 60 | 338 | 5.0 | 8.0 | 0.00 | 0.01 | 0.01 | 50 | 1004.0 |
| 20260507154205 | 61 | 262 | 4.0 | 4.0 | 0.00 | 0.01 | 0.01 | 49 | 1004.1 |
| 20260507153701 | 62 | 222 | 7.0 | 7.0 | 0.00 | 0.01 | 0.01 | 47 | 1004.3 |
| 20260507153157 | 60 | 305 | 2.0 | 4.0 | 0.00 | 0.01 | 0.01 | 48 | 1004.1 |
| 20260507152654 | 62 | 237 | 2.0 | 3.0 | 0.00 | 0.01 | 0.01 | 46 | 1004.3 |
| 20260507152150 | 61 | 204 | 3.0 | 6.0 | 0.00 | 0.01 | 0.01 | 48 | 1004.1 |
| 20260507151646 | 60 | 264 | 1.0 | 1.0 | 0.00 | 0.01 | 0.01 | 49 | 1004.3 |
| 20260507151143 | 61 | 213 | 2.0 | 2.0 | 0.00 | 0.01 | 0.01 | 47 | 1004.5 |
| 20260507150640 | 60 | 206 | 2.0 | 2.0 | 0.00 | 0.01 | 0.01 | 49 | 1004.8 |
| 20260507150137 | 61 | 280 | 5.0 | 8.0 | 0.00 | 0.01 | 0.01 | 49 | 1004.6 |
| 20260507145632 | 60 | 239 | 2.0 | 3.0 | 0.00 | 0.01 | 0.01 | 49 | 1004.7 |
| 20260507145130 | 59 | 243 | 2.0 | 2.0 | 0.00 | 0.01 | 0.01 | 51 | 1004.6 |
| 20260507144626 | 60 | 241 | 2.0 | 2.0 | 0.00 | 0.01 | 0.01 | 51 | 1004.8 |
| 20260507144124 | 60 | 278 | 2.0 | 3.0 | 0.00 | 0.01 | 0.01 | 52 | 1004.5 |
| 20260507143620 | 60 | 316 | 3.0 | 4.0 | 0.00 | 0.01 | 0.01 | 50 | 1004.7 |
| 20260507143118 | 60 | 353 | 4.0 | 6.0 | 0.00 | 0.01 | 0.01 | 52 | 1004.4 |
| 20260507142613 | 59 | 242 | 2.0 | 3.0 | 0.00 | 0.01 | 0.01 | 53 | 1004.6 |
| 20260507142111 | 59 | 226 | 1.0 | 1.0 | 0.00 | 0.01 | 0.01 | 54 | 1004.6 |
| 20260507141607 | 59 | 232 | 2.0 | 3.0 | 0.00 | 0.01 | 0.01 | 53 | 1004.6 |
| 20260507141103 | 60 | 269 | 2.0 | 3.0 | 0.00 | 0.01 | 0.01 | 54 | 1004.5 |
| 20260507140600 | 58 | 231 | 1.0 | 2.0 | 0.00 | 0.01 | 0.01 | 58 | 1004.4 |
| 20260507140057 | 58 | 358 | 1.0 | 3.0 | 0.00 | 0.01 | 0.01 | 58 | 1004.6 |
| 20260507135553 | 58 | 228 | 3.0 | 6.0 | 0.00 | 0.01 | 0.01 | 57 | 1004.4 |
| 20260507135046 | 57 | 314 | 4.0 | 4.0 | 0.00 | 0.01 | 0.01 | 59 | 1004.8 |
| 20260507134542 | 57 | 268 | 2.0 | 3.0 | 0.00 | 0.01 | 0.01 | 61 | 1004.9 |
| 20260507134038 | 56 | 223 | 1.0 | 1.0 | 0.00 | 0.01 | 0.01 | 62 | 1004.6 |
| 20260507133534 | 56 | 290 | 2.0 | 3.0 | 0.00 | 0.01 | 0.01 | 61 | 1004.9 |
| 20260507133032 | 56 | 346 | 4.0 | 6.0 | 0.00 | 0.01 | 0.01 | 61 | 1005.2 |
| 20260507132529 | 56 | 333 | 6.0 | 8.0 | 0.00 | 0.01 | 0.01 | 61 | 1005.0 |
| 20260507132025 | 56 | 321 | 3.0 | 3.0 | 0.00 | 0.01 | 0.01 | 62 | 1005.2 |
| 20260507131522 | 55 | 307 | 4.0 | 6.0 | 0.00 | 0.01 | 0.01 | 62 | 1005.3 |
| 20260507131019 | 56 | 348 | 3.0 | 3.0 | 0.00 | 0.01 | 0.01 | 62 | 1005.2 |
| 20260507130516 | 55 | 6 | 4.0 | 4.0 | 0.00 | 0.01 | 0.01 | 63 | 1005.2 |
| 20260507130015 | 55 | 300 | 4.0 | 4.0 | 0.00 | 0.01 | 0.01 | 63 | 1005.3 |
| 20260507125512 | 55 | 6 | 7.0 | 8.0 | 0.00 | 0.01 | 0.01 | 64 | 1005.2 |
| 20260507125011 | 54 | 235 | 0.0 | 1.0 | 0.00 | 0.01 | 0.01 | 66 | 1005.2 |
| 20260507124506 | 55 | 315 | 5.0 | 7.0 | 0.00 | 0.01 | 0.01 | 66 | 1005.6 |
| 20260507124004 | 54 | 207 | 1.0 | 1.0 | 0.00 | 0.01 | 0.01 | 68 | 1005.2 |
| 20260507123501 | 53 | 242 | 1.0 | 1.0 | 0.00 | 0.01 | 0.01 | 70 | 1005.2 |
| 20260507122957 | 53 | 248 | 6.0 | 8.0 | 0.00 | 0.01 | 0.01 | 70 | 1005.2 |
| 20260507122453 | 53 | 302 | 2.0 | 3.0 | 0.00 | 0.01 | 0.01 | 70 | 1005.3 |
| 20260507121949 | 52 | 224 | 1.0 | 1.0 | 0.00 | 0.01 | 0.01 | 71 | 1005.4 |
| 20260507121444 | 52 | 293 | 1.0 | 2.0 | 0.00 | 0.01 | 0.01 | 73 | 1005.3 |
| 20260507120941 | 51 | 238 | 2.0 | 2.0 | 0.00 | 0.01 | 0.01 | 73 | 1005.4 |
| 20260507120437 | 51 | 330 | 5.0 | 6.0 | 0.00 | 0.01 | 0.01 | 74 | 1005.4 |
| 20260507115934 | 51 | 260 | 3.0 | 4.0 | 0.00 | 0.01 | 0.01 | 75 | 1005.4 |
| 20260507115430 | 50 | 333 | 3.0 | 4.0 | 0.00 | 0.01 | 0.01 | 76 | 1005.1 |
| 20260507114926 | 51 | 318 | 2.0 | 3.0 | 0.00 | 0.01 | 0.01 | 76 | 1005.6 |
| 20260507114422 | 50 | 308 | 4.0 | 8.0 | 0.00 | 0.01 | 0.01 | 77 | 1005.4 |
| 20260507113920 | 50 | 277 | 2.0 | 2.0 | 0.00 | 0.01 | 0.01 | 78 | 1005.1 |
| 20260507113417 | 50 | 253 | 2.0 | 3.0 | 0.00 | 0.01 | 0.01 | 79 | 1005.2 |
| 20260507112914 | 49 | 268 | 4.0 | 4.0 | 0.00 | 0.01 | 0.01 | 80 | 1004.8 |
| 20260507112411 | 49 | 257 | 1.0 | 1.0 | 0.00 | 0.01 | 0.01 | 80 | 1005.0 |
| 20260507111909 | 49 | 337 | 3.0 | 3.0 | 0.00 | 0.01 | 0.01 | 80 | 1004.8 |
| 20260507111405 | 49 | 252 | 4.0 | 7.0 | 0.00 | 0.01 | 0.01 | 81 | 1005.2 |
| 20260507110902 | 49 | 266 | 1.0 | 1.0 | 0.00 | 0.01 | 0.01 | 81 | 1005.1 |
| 20260507110358 | 49 | 252 | 0.0 | 1.0 | 0.00 | 0.01 | 0.01 | 82 | 1005.3 |
| 20260507105855 | 49 | 328 | 1.0 | 3.0 | 0.00 | 0.01 | 0.01 | 82 | 1005.0 |
| 20260507105351 | 49 | 276 | 3.0 | 3.0 | 0.00 | 0.01 | 0.01 | 82 | 1004.9 |
| 20260507104848 | 49 | 274 | 2.0 | 2.0 | 0.00 | 0.01 | 0.01 | 83 | 1004.7 |
| 20260507104345 | 49 | 330 | 4.0 | 6.0 | 0.00 | 0.01 | 0.01 | 83 | 1004.8 |
| 20260507103841 | 49 | 255 | 1.0 | 1.0 | 0.00 | 0.01 | 0.01 | 84 | 1004.6 |
| 20260507103337 | 49 | 332 | 3.0 | 7.0 | 0.00 | 0.01 | 0.01 | 84 | 1004.6 |
| 20260507102834 | 49 | 314 | 4.0 | 4.0 | 0.00 | 0.01 | 0.01 | 83 | 1004.4 |
| 20260507102330 | 49 | 338 | 6.0 | 7.0 | 0.00 | 0.01 | 0.01 | 84 | 1004.8 |
| 20260507101827 | 49 | 319 | 6.0 | 9.0 | 0.00 | 0.01 | 0.01 | 84 | 1004.9 |
| 20260507101322 | 49 | 319 | 3.0 | 3.0 | 0.00 | 0.01 | 0.01 | 84 | 1004.8 |
| 20260507100819 | 49 | 274 | 4.0 | 4.0 | 0.00 | 0.01 | 0.01 | 83 | 1004.2 |
| 20260507100318 | 49 | 254 | 4.0 | 6.0 | 0.00 | 0.01 | 0.01 | 84 | 1004.5 |
| 20260507095816 | 49 | 274 | 3.0 | 4.0 | 0.00 | 0.01 | 0.01 | 84 | 1005.1 |
| 20260507095311 | 49 | 243 | 1.0 | 1.0 | 0.00 | 0.01 | 0.01 | 84 | 1004.7 |
| 20260507094809 | 49 | 237 | 1.0 | 1.0 | 0.00 | 0.01 | 0.01 | 84 | 1004.4 |
| 20260507094305 | 49 | 333 | 3.0 | 7.0 | 0.00 | 0.01 | 0.01 | 84 | 1004.5 |
| 20260507093802 | 49 | 315 | 2.0 | 3.0 | 0.00 | 0.01 | 0.01 | 84 | 1004.7 |
| 20260507093301 | 49 | 292 | 1.0 | 2.0 | 0.00 | 0.01 | 0.01 | 84 | 1004.3 |
| 20260507092758 | 49 | 275 | 2.0 | 3.0 | 0.00 | 0.01 | 0.01 | 84 | 1004.7 |
| 20260507092254 | 49 | 292 | 6.0 | 9.0 | 0.00 | 0.01 | 0.01 | 83 | 1004.8 |
| 20260507091750 | 49 | 268 | 0.0 | 1.0 | 0.00 | 0.01 | 0.01 | 84 | 1004.9 |
| 20260507091247 | 50 | 277 | 2.0 | 3.0 | 0.00 | 0.01 | 0.01 | 84 | 1004.7 |
| 20260507090742 | 50 | 239 | 2.0 | 3.0 | 0.00 | 0.01 | 0.01 | 83 | 1004.5 |
| 20260507090239 | 50 | 239 | 0.0 | 1.0 | 0.00 | 0.01 | 0.01 | 83 | 1004.6 |
| 20260507085736 | 50 | 248 | 2.0 | 2.0 | 0.00 | 0.01 | 0.01 | 84 | 1004.3 |
| 20260507085233 | 50 | 207 | 2.0 | 2.0 | 0.00 | 0.01 | 0.01 | 83 | 1004.1 |
| 20260507084730 | 50 | 306 | 6.0 | 9.0 | 0.00 | 0.01 | 0.01 | 84 | 1004.2 |
| 20260507084226 | 50 | 249 | 1.0 | 2.0 | 0.00 | 0.01 | 0.01 | 84 | 1004.2 |
| 20260507083724 | 50 | 256 | 5.0 | 7.0 | 0.05 | 0.01 | 0.01 | 84 | 1004.1 |
| 20260507083220 | 50 | 250 | 1.0 | 1.0 | 0.05 | 0.01 | 0.01 | 85 | 1004.0 |
| 20260507082716 | 50 | 234 | 2.0 | 2.0 | 0.00 | 0.00 | 0.00 | 85 | 1004.2 |
| 20260507082212 | 50 | 212 | 2.0 | 4.0 | 0.00 | 0.00 | 0.00 | 85 | 1004.0 |
| 20260507081709 | 50 | 231 | 1.0 | 2.0 | 0.00 | 0.00 | 0.00 | 86 | 1004.0 |
| 20260507081205 | 50 | 235 | 2.0 | 3.0 | 0.00 | 0.00 | 0.00 | 85 | 1004.4 |
| 20260507080702 | 50 | 233 | 2.0 | 3.0 | 0.00 | 0.00 | 0.00 | 85 | 1004.5 |
| 20260507080153 | 51 | 263 | 3.0 | 4.0 | 0.00 | 0.00 | 0.00 | 83 | 1004.1 |
| 20260507075653 | 51 | 295 | 9.0 | 10.0 | 0.00 | 0.00 | 0.00 | 82 | 1003.9 |
| 20260507075150 | 51 | 222 | 4.0 | 7.0 | 0.00 | 0.00 | 0.00 | 82 | 1004.2 |
| 20260507074647 | 51 | 240 | 2.0 | 2.0 | 0.00 | 0.00 | 0.00 | 82 | 1004.5 |
| 20260507074145 | 51 | 241 | 3.0 | 6.0 | 0.00 | 0.00 | 0.00 | 82 | 1004.1 |
| 20260507073641 | 51 | 247 | 3.0 | 4.0 | 0.00 | 0.00 | 0.00 | 83 | 1004.1 |
| 20260507073137 | 51 | 240 | 1.0 | 1.0 | 0.00 | 0.00 | 0.00 | 83 | 1004.0 |
| 20260507072636 | 51 | 282 | 3.0 | 6.0 | 0.00 | 0.00 | 0.00 | 83 | 1003.9 |
| 20260507072127 | 52 | 244 | 2.0 | 3.0 | 0.00 | 0.00 | 0.00 | 84 | 1003.7 |
| 20260507071625 | 52 | 252 | 1.0 | 2.0 | 0.00 | 0.00 | 0.00 | 85 | 1004.0 |
| 20260507071121 | 52 | 297 | 5.0 | 8.0 | 0.00 | 0.00 | 0.00 | 86 | 1003.8 |
| 20260507070618 | 52 | 283 | 4.0 | 4.0 | 0.00 | 0.00 | 0.00 | 87 | 1003.6 |
| 20260507070115 | 52 | 249 | 1.0 | 1.0 | 0.00 | 0.00 | 0.00 | 89 | 1003.5 |
| 20260507065611 | 52 | 245 | 1.0 | 1.0 | 0.00 | 0.00 | 0.00 | 89 | 1003.6 |
| 20260507065108 | 53 | 270 | 2.0 | 3.0 | 0.00 | 0.00 | 0.00 | 89 | 1003.6 |
| 20260507064606 | 53 | 240 | 2.0 | 3.0 | 0.00 | 0.00 | 0.00 | 88 | 1003.7 |
| 20260507064105 | 53 | 237 | 2.0 | 3.0 | 0.00 | 0.00 | 0.00 | 88 | 1003.5 |
| 20260507063602 | 53 | 236 | 0.0 | 1.0 | 0.00 | 0.00 | 0.00 | 88 | 1003.2 |
| 20260507063059 | 53 | 237 | 1.0 | 1.0 | 0.00 | 0.00 | 0.00 | 88 | 1003.3 |
| 20260507062555 | 53 | 256 | 4.0 | 8.0 | 0.00 | 0.00 | 0.00 | 87 | 1003.4 |
| 20260507062053 | 53 | 244 | 1.0 | 2.0 | 0.00 | 0.00 | 0.00 | 87 | 1003.5 |
| 20260507061550 | 53 | 246 | 1.0 | 1.0 | 0.00 | 0.00 | 0.00 | 87 | 1003.6 |
| 20260507061048 | 53 | 299 | 1.0 | 2.0 | 0.00 | 0.00 | 0.00 | 87 | 1003.6 |
| 20260507060546 | 53 | 238 | 1.0 | 1.0 | 0.00 | 0.00 | 0.00 | 88 | 1003.5 |
| 20260507060042 | 53 | 270 | 1.0 | 1.0 | 0.00 | 0.00 | 0.00 | 88 | 1003.7 |
| 20260507055542 | 53 | 339 | 3.0 | 6.0 | 0.00 | 0.00 | 0.00 | 88 | 1003.8 |
| 20260507055039 | 53 | 248 | 2.0 | 2.0 | 0.00 | 0.00 | 0.00 | 89 | 1003.8 |
| 20260507054535 | 53 | 244 | 1.0 | 2.0 | 0.00 | 0.00 | 0.00 | 89 | 1003.7 |
| 20260507054032 | 53 | 298 | 2.0 | 3.0 | 0.00 | 0.00 | 0.00 | 89 | 1003.6 |
| 20260507053530 | 53 | 277 | 2.0 | 3.0 | 0.00 | 0.00 | 0.00 | 89 | 1003.4 |
| 20260507053029 | 54 | 247 | 3.0 | 3.0 | 0.00 | 0.00 | 0.00 | 88 | 1003.7 |
| 20260507052526 | 53 | 229 | 3.0 | 4.0 | 0.00 | 0.00 | 0.00 | 88 | 1003.7 |
| 20260507052022 | 53 | 226 | 0.0 | 1.0 | 0.00 | 0.00 | 0.00 | 88 | 1003.6 |
| 20260507051520 | 54 | 253 | 1.0 | 1.0 | 0.00 | 0.00 | 0.00 | 89 | 1003.7 |
| 20260507051017 | 54 | 258 | 1.0 | 1.0 | 0.00 | 0.00 | 0.00 | 89 | 1003.7 |
| 20260507050513 | 54 | 250 | 3.0 | 4.0 | 0.00 | 0.00 | 0.00 | 90 | 1004.0 |
| 20260507050010 | 54 | 301 | 6.0 | 8.0 | 0.00 | 0.00 | 0.00 | 90 | 1003.9 |
| 20260507045506 | 54 | 254 | 2.0 | 3.0 | 0.00 | 0.00 | 0.00 | 90 | 1003.6 |
| 20260507045004 | 54 | 246 | 3.0 | 4.0 | 0.00 | 0.00 | 0.00 | 90 | 1003.4 |
| 20260507044500 | 54 | 234 | 2.0 | 2.0 | 0.00 | 0.00 | 0.00 | 90 | 1003.6 |
| 20260507043956 | 54 | 217 | 0.0 | 1.0 | 0.00 | 0.00 | 0.00 | 91 | 1003.5 |
| 20260507043453 | 54 | 271 | 1.0 | 2.0 | 0.00 | 0.00 | 0.00 | 92 | 1003.7 |
| 20260507042949 | 55 | 276 | 4.0 | 4.0 | 0.00 | 0.00 | 0.00 | 93 | 1003.5 |
| 20260507042446 | 56 | 326 | 4.0 | 7.0 | 0.00 | 0.00 | 0.00 | 94 | 1003.8 |
| 20260507041942 | 56 | 302 | 4.0 | 6.0 | 0.00 | 0.00 | 0.00 | 94 | 1003.8 |
| 20260507041439 | 57 | 216 | 3.0 | 4.0 | 0.00 | 0.00 | 0.00 | 95 | 1003.6 |
| 20260507040936 | 57 | 250 | 3.0 | 6.0 | 0.00 | 0.00 | 0.00 | 96 | 1003.7 |
| 20260507040432 | 59 | 254 | 1.0 | 1.0 | 0.00 | 0.00 | 0.00 | 96 | 1003.2 |
| 20260507035928 | 59 | 239 | 2.0 | 2.0 | 0.00 | 0.21 | 0.21 | 97 | 1003.2 |
| 20260507035425 | 59 | 237 | 2.0 | 3.0 | 0.00 | 0.21 | 0.21 | 97 | 1003.3 |
| 20260507034922 | 59 | 238 | 2.0 | 2.0 | 0.00 | 0.21 | 0.21 | 97 | 1003.0 |
| 20260507034419 | 59 | 236 | 2.0 | 4.0 | 0.00 | 0.21 | 0.21 | 97 | 1003.1 |
| 20260507033917 | 59 | 223 | 1.0 | 1.0 | 0.00 | 0.21 | 0.21 | 97 | 1003.1 |
| 20260507033414 | 59 | 214 | 4.0 | 6.0 | 0.00 | 0.21 | 0.21 | 97 | 1002.8 |
| 20260507032911 | 59 | 231 | 1.0 | 1.0 | 0.00 | 0.21 | 0.21 | 97 | 1002.7 |
| 20260507032408 | 59 | 228 | 1.0 | 2.0 | 0.00 | 0.21 | 0.21 | 97 | 1002.7 |
| 20260507031904 | 59 | 212 | 3.0 | 3.0 | 0.00 | 0.21 | 0.21 | 97 | 1002.6 |
| 20260507031401 | 59 | 238 | 3.0 | 3.0 | 0.00 | 0.21 | 0.21 | 97 | 1002.5 |
| 20260507030857 | 59 | 220 | 1.0 | 2.0 | 0.00 | 0.21 | 0.21 | 97 | 1002.4 |
| 20260507030355 | 59 | 237 | 1.0 | 2.0 | 0.00 | 0.21 | 0.21 | 97 | 1002.4 |
| 20260507025851 | 59 | 228 | 3.0 | 3.0 | 0.00 | 0.21 | 0.21 | 97 | 1002.5 |
| 20260507025349 | 59 | 217 | 1.0 | 2.0 | 0.00 | 0.21 | 0.21 | 97 | 1002.5 |
| 20260507024846 | 59 | 236 | 2.0 | 3.0 | 0.00 | 0.21 | 0.21 | 97 | 1002.8 |
| 20260507024344 | 59 | 219 | 1.0 | 2.0 | 0.00 | 0.21 | 0.21 | 97 | 1002.5 |
| 20260507023839 | 59 | 222 | 2.0 | 3.0 | 0.00 | 0.21 | 0.21 | 98 | 1002.8 |
| 20260507023336 | 59 | 231 | 3.0 | 3.0 | 0.00 | 0.21 | 0.21 | 98 | 1002.4 |
| 20260507022834 | 59 | 232 | 2.0 | 3.0 | 0.00 | 0.21 | 0.21 | 98 | 1002.4 |
| 20260507022330 | 59 | 237 | 3.0 | 3.0 | 0.00 | 0.21 | 0.21 | 98 | 1002.5 |
| 20260507021826 | 59 | 233 | 1.0 | 2.0 | 0.00 | 0.21 | 0.21 | 98 | 1002.4 |
| 20260507021321 | 59 | 203 | 2.0 | 3.0 | 0.00 | 0.21 | 0.21 | 98 | 1002.3 |
| 20260507020820 | 59 | 234 | 0.0 | 0.0 | 0.00 | 0.21 | 0.21 | 98 | 1002.5 |
| 20260507020316 | 59 | 215 | 4.0 | 6.0 | 0.00 | 0.21 | 0.21 | 98 | 1002.6 |
| 20260507015814 | 59 | 213 | 3.0 | 3.0 | 0.00 | 0.21 | 0.21 | 98 | 1002.8 |
| 20260507015311 | 59 | 183 | 2.0 | 3.0 | 0.00 | 0.21 | 0.21 | 98 | 1002.7 |
| 20260507014808 | 59 | 236 | 3.0 | 4.0 | 0.00 | 0.21 | 0.21 | 98 | 1002.7 |
| 20260507014304 | 59 | 186 | 3.0 | 6.0 | 0.00 | 0.21 | 0.21 | 98 | 1002.9 |
| 20260507013800 | 58 | 226 | 4.0 | 4.0 | 0.00 | 0.21 | 0.21 | 98 | 1002.9 |
| 20260507013258 | 59 | 200 | 2.0 | 2.0 | 0.00 | 0.21 | 0.21 | 98 | 1002.9 |
| 20260507012755 | 59 | 229 | 1.0 | 2.0 | 0.00 | 0.21 | 0.21 | 98 | 1002.8 |
| 20260507012251 | 59 | 239 | 4.0 | 6.0 | 0.00 | 0.21 | 0.21 | 98 | 1002.8 |
| 20260507011749 | 59 | 239 | 4.0 | 6.0 | 0.00 | 0.21 | 0.21 | 98 | 1002.8 |
| 20260507011245 | 59 | 229 | 1.0 | 2.0 | 0.00 | 0.21 | 0.21 | 98 | 1002.9 |
| 20260507010744 | 59 | 198 | 5.0 | 6.0 | 0.00 | 0.21 | 0.21 | 98 | 1002.9 |
| 20260507010241 | 59 | 230 | 2.0 | 3.0 | 0.00 | 0.21 | 0.21 | 98 | 1002.9 |
| 20260507005738 | 59 | 197 | 1.0 | 2.0 | 0.00 | 0.21 | 0.21 | 98 | 1002.8 |
| 20260507005234 | 59 | 233 | 0.0 | 1.0 | 0.00 | 0.21 | 0.21 | 98 | 1002.8 |
| 20260507004731 | 59 | 226 | 1.0 | 2.0 | 0.00 | 0.21 | 0.21 | 98 | 1003.0 |
| 20260507004229 | 59 | 229 | 2.0 | 2.0 | 0.00 | 0.21 | 0.21 | 98 | 1003.0 |
| 20260507003725 | 59 | 209 | 2.0 | 2.0 | 0.00 | 0.21 | 0.21 | 97 | 1002.8 |
| 20260507003220 | 59 | 204 | 2.0 | 3.0 | 0.07 | 0.21 | 0.21 | 97 | 1002.9 |
| 20260507002716 | 59 | 237 | 3.0 | 3.0 | 0.07 | 0.21 | 0.21 | 97 | 1003.1 |
| 20260507002213 | 59 | 203 | 2.0 | 3.0 | 0.00 | 0.20 | 0.20 | 97 | 1002.7 |
| 20260507001710 | 59 | 242 | 2.0 | 3.0 | 0.00 | 0.20 | 0.20 | 97 | 1002.7 |
| 20260507001207 | 59 | 230 | 1.0 | 1.0 | 0.00 | 0.20 | 0.20 | 97 | 1002.7 |
| 20260507000703 | 59 | 187 | 2.0 | 3.0 | 0.00 | 0.20 | 0.20 | 97 | 1002.8 |
| 20260507000159 | 59 | 224 | 0.0 | 0.0 | 0.00 | 0.20 | 0.20 | 97 | 1002.7 |
| 20260506235656 | 59 | 189 | 2.0 | 2.0 | 0.00 | 0.20 | 0.20 | 97 | 1002.8 |
| 20260506235151 | 59 | 222 | 1.0 | 2.0 | 0.05 | 0.20 | 0.20 | 96 | 1002.7 |
| 20260506234649 | 59 | 222 | 1.0 | 1.0 | 0.12 | 0.20 | 0.20 | 96 | 1002.6 |
| 20260506234146 | 60 | 207 | 1.0 | 1.0 | 0.24 | 0.19 | 0.19 | 96 | 1002.7 |
| 20260506233643 | 60 | 235 | 0.0 | 0.0 | 0.24 | 0.18 | 0.18 | 96 | 1002.6 |
| 20260506233140 | 60 | 182 | 2.0 | 3.0 | 0.14 | 0.15 | 0.15 | 96 | 1002.7 |
| 20260506232636 | 60 | 241 | 1.0 | 3.0 | 0.07 | 0.14 | 0.14 | 96 | 1002.5 |
| 20260506232131 | 60 | 198 | 3.0 | 6.0 | 0.00 | 0.13 | 0.13 | 96 | 1002.5 |
| 20260506231629 | 60 | 221 | 3.0 | 4.0 | 0.00 | 0.13 | 0.13 | 96 | 1002.7 |
| 20260506231127 | 60 | 228 | 2.0 | 3.0 | 0.00 | 0.13 | 0.13 | 96 | 1002.9 |
| 20260506230624 | 60 | 183 | 4.0 | 6.0 | 0.05 | 0.13 | 0.13 | 95 | 1002.9 |
| 20260506230121 | 60 | 224 | 0.0 | 1.0 | 0.05 | 0.13 | 0.13 | 95 | 1002.8 |
| 20260506225617 | 60 | 237 | 3.0 | 3.0 | 0.05 | 0.13 | 0.13 | 95 | 1003.1 |
| 20260506225114 | 60 | 207 | 3.0 | 4.0 | 0.07 | 0.12 | 0.12 | 95 | 1002.9 |
| 20260506224610 | 60 | 198 | 3.0 | 4.0 | 0.07 | 0.12 | 0.12 | 95 | 1002.7 |
| 20260506224107 | 60 | 207 | 4.0 | 8.0 | 0.07 | 0.12 | 0.12 | 95 | 1003.0 |
| 20260506223603 | 60 | 238 | 2.0 | 2.0 | 0.00 | 0.11 | 0.11 | 95 | 1003.3 |
| 20260506223059 | 60 | 223 | 2.0 | 3.0 | 0.00 | 0.11 | 0.11 | 95 | 1003.0 |
| 20260506222556 | 60 | 233 | 2.0 | 2.0 | 0.00 | 0.11 | 0.11 | 95 | 1003.1 |
| 20260506222052 | 60 | 216 | 4.0 | 6.0 | 0.00 | 0.11 | 0.11 | 95 | 1002.9 |
| 20260506221550 | 60 | 190 | 3.0 | 4.0 | 0.00 | 0.11 | 0.11 | 95 | 1003.3 |
| 20260506221048 | 60 | 226 | 2.0 | 2.0 | 0.00 | 0.11 | 0.11 | 95 | 1003.2 |
| 20260506220544 | 60 | 234 | 4.0 | 6.0 | 0.00 | 0.11 | 0.11 | 95 | 1003.2 |
| 20260506220039 | 60 | 188 | 4.0 | 6.0 | 0.00 | 0.11 | 0.11 | 95 | 1003.4 |
| 20260506215537 | 60 | 229 | 2.0 | 3.0 | 0.00 | 0.11 | 0.11 | 95 | 1003.4 |
| 20260506215032 | 60 | 236 | 2.0 | 2.0 | 0.00 | 0.11 | 0.11 | 95 | 1003.6 |
| 20260506214529 | 60 | 206 | 2.0 | 3.0 | 0.00 | 0.11 | 0.11 | 95 | 1003.7 |
| 20260506214026 | 60 | 192 | 3.0 | 3.0 | 0.00 | 0.11 | 0.11 | 95 | 1003.7 |
| 20260506213525 | 60 | 219 | 2.0 | 3.0 | 0.05 | 0.11 | 0.11 | 95 | 1003.8 |